Paso Robles, CA

2:17 PM PST on January 19, 2017 (GMT -0800)
Paso Robles Municipal

Weather History for KPRB - November, 2013

Change the Weather History Date:

Thursday, November 28, 2013

  Actual Average Record
Temperature  
Mean Temperature 54 °F 49 °F  
Max Temperature 69 °F 62 °F 78 °F (2014)
Min Temperature 39 °F 35 °F 21 °F (1948)
Degree Days  
Heating Degree Days 11 16  
Month to date heating degree days 281 345  
Since 1 July heating degree days 431 515  
Cooling Degree Days 0 0  
Month to date cooling degree days 0 0  
Year to date cooling degree days 1173 926  
Growing Degree Days 4 (Base 50)    
Moisture  
Dew Point 39 °F    
Average Humidity 58    
Maximum Humidity 86    
Minimum Humidity 29    
Precipitation  
Precipitation 0.00 in 0.03 in 0.27 in (1966)
Month to date precipitation 0.27 0.95  
Year to date precipitation 1.75 10.69  
Since 1 July precipitation 0.29  
Sea Level Pressure  
Sea Level Pressure 29.94 in    
Wind  
Wind Speed 2 mph (East)    
Max Wind Speed 13 mph    
Max Gust Speed -    
Visibility 10 miles    
Events      
T = Trace of Precipitation, MM = Missing Value Source: NWS Daily Summary

Daily Weather History Graph

Daily Weather History Graph

Search for Another Location

Airport or City:

Trip Planner

Search our weather history database for the weather conditions in past years. The results will help you decide how hot, cold, wet, or windy it might be!

Date:

Astronomy

Nov. 28, 2013 Rise Set
Actual Time 6:51 AM PST 4:49 PM PST
Civil Twilight 6:23 AM PST 5:17 PM PST
Nautical Twilight 5:52 AM PST 5:49 PM PST
Astronomical Twilight 5:21 AM PST 6:19 PM PST
Moon 2:07 AM PST (11/28) 1:54 PM PST (11/28)
Length of Visible Light 10h 54m
Length of Day
9h 58m
Waning Crescent, 21% of the Moon is Illuminated
Nov 28
Waning Crescent
Dec 2
New
Dec 9
First Quarter
Dec 17
Full
Dec 25
Last Quarter

Hourly Weather History & Observations

Time (PST) Temp. Windchill Dew Point Humidity Pressure Visibility Wind Dir Wind Speed Gust Speed Precip Events Conditions
12:53 AM 46.9 °F - 39.0 °F 74% 29.87 in 10.0 mi Calm Calm - N/A   Clear
1:53 AM 46.9 °F - 39.9 °F 77% 29.87 in 10.0 mi Calm Calm - N/A   Clear
2:53 AM 44.1 °F - 37.9 °F 79% 29.88 in 10.0 mi Calm Calm - N/A   Clear
3:53 AM 44.1 °F - 37.9 °F 79% 29.87 in 10.0 mi Calm Calm - N/A   Clear
4:53 AM 45.0 °F - 37.9 °F 76% 29.87 in 10.0 mi Calm Calm - N/A   Clear
5:53 AM 42.1 °F 40.2 °F 37.0 °F 82% 29.88 in 10.0 mi East 3.5 mph - N/A   Clear
6:53 AM 41.0 °F - 37.0 °F 86% 29.91 in 10.0 mi Calm Calm - N/A   Clear
7:53 AM 42.1 °F - 37.0 °F 82% 29.93 in 10.0 mi Calm Calm - N/A   Clear
8:53 AM 46.9 °F - 39.0 °F 74% 29.94 in 10.0 mi Calm Calm - N/A   Clear
9:53 AM 51.1 °F - 39.0 °F 63% 29.96 in 10.0 mi Calm Calm - N/A   Clear
10:53 AM 57.0 °F - 39.0 °F 51% 29.94 in 10.0 mi Calm Calm - N/A   Clear
11:53 AM 60.1 °F - 37.9 °F 44% 29.92 in 10.0 mi Calm Calm - N/A   Clear
12:53 PM 62.1 °F - 37.9 °F 41% 29.91 in 10.0 mi NW 4.6 mph - N/A   Scattered Clouds
1:53 PM 66.9 °F - 36.0 °F 32% 29.90 in 10.0 mi ENE 6.9 mph - N/A   Overcast
2:53 PM 66.9 °F - 34.0 °F 30% 29.90 in 10.0 mi East 8.1 mph - N/A   Scattered Clouds
3:53 PM 66.9 °F - 34.0 °F 30% 29.91 in 10.0 mi East 10.4 mph - N/A   Clear
4:53 PM 61.0 °F - 39.9 °F 46% 29.93 in 10.0 mi Variable 3.5 mph - N/A   Clear
5:53 PM 57.0 °F - 41.0 °F 55% 29.96 in 10.0 mi SE 8.1 mph - N/A   Clear
6:53 PM 52.0 °F - 42.1 °F 69% 29.99 in 10.0 mi SE 4.6 mph - N/A   Clear
7:53 PM 51.1 °F - 42.1 °F 71% 30.02 in 10.0 mi SE 4.6 mph - N/A   Mostly Cloudy
8:53 PM 52.0 °F - 43.0 °F 71% 30.04 in 10.0 mi Calm Calm - N/A   Mostly Cloudy
9:53 PM 46.0 °F - 39.9 °F 79% 30.05 in 10.0 mi Calm Calm - N/A   Clear
10:53 PM 48.0 °F - 41.0 °F 77% 30.06 in 10.0 mi Calm Calm - N/A   Mostly Cloudy
11:53 PM 45.0 °F - 39.0 °F 80% 30.07 in 10.0 mi Calm Calm - N/A   Mostly Cloudy